Regional Weather Roundup
Issued by NWS

Home | Current Version | Previous Version | Text Only | Print | Product List | Glossary Off
Versions: 1 2 3 4 5 6 7 8 9 10 11 12 13 14 15 16 17 18 19 20 21 22 23 24 25 26 27 28 29 30 31 32 33 34 35 36 37 38 39 40 41 42 43 44 45 46 47 48 49 50

000
ASUS43 KIND 270809
RWRIN

WEATHER ROUNDUP FOR INDIANA
NATIONAL WEATHER SERVICE INDIANAPOLIS IN
300 AM EST FRI FEB 27 2015

NOTE: "FAIR" INDICATES FEW OR NO CLOUDS BELOW 12,000 FEET WITH NO
SIGNIFICANT WEATHER AND/OR OBSTRUCTIONS TO VISIBILITY.

* - STATION DOES NOT REPORT WEATHER SUCH AS PRECIPITATION OR FOG.

+ - STATION NOT QUALITY CONTROLLED BY THE NATIONAL WEATHER SERVICE.
    USE DATA WITH CAUTION...ESPECIALLY DEWPOINT AND RELATIVE
    HUMIDITY OBSERVATIONS.

INZ001>003-010>013-019-020-270900-
NORTHWEST INDIANA

CITY           SKY/WX    TMP DP  RH WIND       PRES   REMARKS
GARY /AIRPORT/ MOCLDY     7  -7  52 W8        30.44R WCI  -5
KNOX *+          N/A      5  -9  51 SW3       30.42R
LA PORTE +     CLOUDY     5   1  84 CALM      30.41R
MICHIGAN CITY+ FLURRIES   9   3  78 CALM      30.43R
MONTICELLO +   FAIR       1  -3  82 SW6       30.44R WCI -10
RENSSELAER +   CLEAR      0  -6  78 W6        30.44R WCI -12
VALPARAISO     CLOUDY     4  -1  80 W8        30.41R WCI  -9

$$

LMZ046-743>745-270900-
SOUTHERN LAKE MICHIGAN

STATION/POSITION TIME  TEMP WIND        PRES
                       AIR  DIR/SP/G
                 (UTC) (F)  (DEG/KT/KT) (MB)
MICHIGAN CITY    0800   10   40/  7/  9   N/A

$$

INZ004-005-014>016-021>024-270900-
NORTH CENTRAL INDIANA

CITY           SKY/WX    TMP DP  RH WIND       PRES   REMARKS
GOSHEN         CLEAR     -5 -12  72 CALM      30.40R
LOGANSPORT +   CLEAR      3   1  92 W3        30.43R
PERU/GRISSOM   MOCLDY     6   2  85 W7        30.40R WCI  -6
ROCHESTER +    CLOUDY    12   9  85 W5        30.42R WCI   4
SOUTH BEND     CLEAR      1  -8  66 N5        30.41R WCI  -9
WARSAW +       CLOUDY     3  -2  78 CALM      30.40R

$$

INZ006>009-017-018-025>027-270900-
NORTHEAST INDIANA

CITY           SKY/WX    TMP DP  RH WIND       PRES   REMARKS
ANGOLA *+      CLEAR    -11 -17  77 CALM      30.37R
AUBURN +       CLEAR     -2  -8  78 W3        30.39R
FORT WAYNE     PTCLDY     0  -8  69 NW5       30.40R WCI -10
HUNTINGTON +   FAIR       1  -8  67 CALM      30.40R

$$

INZ028-029-035-036-043>045-051>053-270900-
WEST CENTRAL INDIANA

CITY           SKY/WX    TMP DP  RH WIND       PRES   REMARKS
CRAWFORDSVL +  CLOUDY     4  -4  69 NW5       30.44R WCI  -5
GREENCASTLE +  LGT SNOW   9   3  78 NW6       30.44R WCI  -1
LAFAYETTE      CLOUDY     4  -3  73 W3        30.46R
TERRE HAUTE    CLOUDY     9   1  70 NW6       30.48R WCI  -1

$$

INZ030>032-037>040-046>048-054>057-064-065-270900-
CENTRAL INDIANA

CITY           SKY/WX    TMP DP  RH WIND       PRES   REMARKS
CP ATTERBURY + CLEAR      9   1  72 NW3       30.43R
FRANKFORT +    PTCLDY     0  -3  86 W5        30.44R WCI -10
GREENWOOD *+   CLEAR      5  -2  72 W5        30.42R WCI  -4
INDIANAPOLIS   PTCLDY     4   0  83 NW6       30.42R WCI  -7
-EAGLE CREEK   CLEAR      5   1  83 NW7       30.42R WCI  -7
KOKOMO *+      CLEAR      7   1  78 W8        30.42R WCI  -6
MARION +       PTCLDY    -1  -6  80 W5        30.41R WCI -12
MT COMFORT *+  CLEAR      1  -9  60 NW3       30.41R
SHELBYVILLE    CLEAR      3  -3  76 NW5       30.41R WCI  -6
ZIONSVILLE +   FAIR       1  -4  80 NW5       30.41S WCI  -9

$$

INZ033-034-041-042-049-050-058-059-270900-
EAST CENTRAL INDIANA

CITY           SKY/WX    TMP DP  RH WIND       PRES   REMARKS
MUNCIE         CLEAR      1  -4  79 NW7       30.39R WCI -12

$$

INZ060-061-067>069-081>083-085>088-270900-
SOUTHWEST INDIANA

CITY           SKY/WX    TMP DP  RH WIND       PRES   REMARKS
EVANSVILLE     CLOUDY    17   5  59 NW5       30.49R WCI  10
HUNTINGBURG *+ CLEAR     14   3  62 N6        30.47R WCI   5
WASHINGTON +   MOCLDY     9   2  71 NW6       30.48R WCI  -1

$$

INZ062-063-066-070>080-084-089>092-270900-
SOUTH CENTRAL AND SOUTHEAST INDIANA

CITY           SKY/WX    TMP DP  RH WIND       PRES   REMARKS
BLOOMINGTON    CLEAR      0  -5  79 CALM      30.43R
NORTH VERNON + CLEAR     10   3  72 N3        30.42R
SEYMOUR +      CLEAR      5  -2  72 W7        30.44R WCI  -7

$$




USA.gov is the U.S. government's official web portal to all federal, state and local government web resources and services.